SL-16 R/B (31793 NORAD) Tracking and Keplerian Element Data

This shows tracking and keplerian element data for the satellite.

Feedback or suggestion? Click here.




ElementValue
Catalog31793
NameSL-16 R/B
Epoch Orbit85422
Epoch Day13.17175948
Epoch Year2024
RAAN25.4048
Inclination70.975
Eccentricity0.0002032
Argument of Perigee264.6666
Mean Anonmoly165.2736
Mean Motion14.14581336
Decay Rate-5.7E-07
L11 31793U 07029B 24013.17175948 -.00000057 00000+0 -47333-5 0 9991
L22 31793 70.9750 25.4048 0002032 264.6666 165.2736 14.14581336854226



Live tracking and technical data element details for SL-16 R/B (NORAD 31793). SL-16 R/B can be tracked NOW for your location showing map with azimuth and elevation plus other details from your city location.







IsCatalogInMostPopularTable: catalog: 31793, numindb: 518
Update: records affected: 1



GetName: 31793 SL-16 R/B

Hit Count: updated at: Fri, 19 Apr 2024 11:34:38 GMT